Location: Ladrillo (historical)
(32.8195°N, 117.2231°W)
Time: 00:07:08
(UTC+00:00)

Altair - Pass Details

Date: 28 February 2021
Orbit: 1501 x 1683 km, 47.2° (Epoch: 16 April)

Event Time Altitude Azimuth Distance (km) Brightness Sun altitude
Rises 04:21:34 0° 260° (W) 4,637 10.9 -33.5°
Reaches altitude 10° 04:24:46 10° 267° (W) 3,668 10.2 -34.2°
Maximum altitude 04:33:32 45° 338° (NNW) 2,000 8.2 -36.0°
Enters shadow 04:36:38 36° 20° (NNE) 2,297 8.3 -36.6°
